Madison, SD

6:54 AM CST on December 07, 2019 (GMT -0600)
Madison Municipal

Weather History for KMDS - October, 2019

Change the Weather History Date:

Thursday, October 17, 2019

  Actual Average Record
Temperature  
Mean Temperature 47 °F -  
Max Temperature 62 °F 58 °F 73 °F (2017)
Min Temperature 32 °F 35 °F 28 °F (2018)
Degree Days  
Heating Degree Days 18    
Moisture  
Dew Point 39 °F    
Average Humidity 79    
Maximum Humidity 100    
Minimum Humidity 42    
Precipitation  
Precipitation 0.00 in - - ()
Sea Level Pressure  
Sea Level Pressure 29.82 in    
Wind  
Wind Speed 9 mph ()    
Max Wind Speed 18 mph    
Max Gust Speed 24 mph    
Visibility 10.0 miles    
Events      
Averages and records for this station are not official NWS values.
T = Trace of Precipitation, MM = Missing Value Source: Averaged Metar Reports

Daily Weather History Graph

Daily Weather History Graph

Search for Another Location

Airport or City:

Astronomy

Oct. 17, 2019 Rise Set
Actual Time 7:45 AM CDT 6:41 PM CDT
Civil Twilight 7:16 AM CDT 7:10 PM CDT
Nautical Twilight 6:42 AM CDT 7:44 PM CDT
Astronomical Twilight 6:09 AM CDT 8:17 PM CDT
Moon 9:07 PM CDT (10/17) 11:24 AM CDT (10/17)
Length of Visible Light 11h 54m
Length of Day
10h 56m
Waning Gibbous, 86% of the Moon is Illuminated
Oct 17
Waning Gibbous
Oct 21
Last Quarter
Oct 27
New
Nov 4
First Quarter
Nov 12
Full

Hourly Weather History & Observations

Time (CDT) Temp. Windchill Dew Point Humidity Pressure Visibility Wind Dir Wind Speed Gust Speed Precip Events Conditions
12:00 AM 37.4 °F 31.4 °F 37.4 °F 100% 29.97 in 10.0 mi South 8.1 mph - N/A   Clear
12:15 AM 37.4 °F 30.8 °F 37.4 °F 100% 29.96 in 10.0 mi South 9.2 mph - N/A   Clear
12:20 AM 37.4 °F 31.4 °F 37.4 °F 100% 29.96 in 10.0 mi South 8.1 mph - N/A   Clear
12:35 AM 37.4 °F 32.8 °F 37.4 °F 100% 29.96 in 10.0 mi SSE 5.8 mph - N/A   Clear
12:40 AM 37.4 °F 32.8 °F 37.4 °F 100% 29.96 in 10.0 mi SSE 5.8 mph - N/A   Clear
12:55 AM 35.6 °F 29.9 °F 35.6 °F 100% 29.95 in 10.0 mi SSE 6.9 mph - N/A   Clear
1:00 AM 35.6 °F 29.2 °F 35.6 °F 100% 29.95 in 10.0 mi SSE 8.1 mph - N/A   Clear
1:15 AM 35.6 °F 30.7 °F 35.6 °F 100% 29.95 in 10.0 mi SSE 5.8 mph - N/A   Clear
1:35 AM 35.6 °F 29.2 °F 35.6 °F 100% 29.94 in 10.0 mi SSE 8.1 mph - N/A   Clear
1:40 AM 35.6 °F 29.2 °F 35.6 °F 100% 29.94 in 10.0 mi SSE 8.1 mph - N/A   Clear
1:55 AM 35.6 °F 28.6 °F 35.6 °F 100% 29.94 in 10.0 mi SSE 9.2 mph - N/A   Clear
2:15 AM 35.6 °F 29.2 °F 35.6 °F 100% 29.93 in 10.0 mi SE 8.1 mph - N/A   Clear
2:20 AM 37.4 °F 31.4 °F 37.4 °F 100% 29.93 in 10.0 mi SE 8.1 mph - N/A   Clear
2:35 AM 37.4 °F 32.1 °F 37.4 °F 100% 29.92 in 10.0 mi SE 6.9 mph - N/A   Clear
2:40 AM 35.6 °F 29.9 °F 35.6 °F 100% 29.92 in 10.0 mi SSE 6.9 mph - N/A   Clear
2:55 AM 35.6 °F 29.9 °F 35.6 °F 100% 29.92 in 10.0 mi SE 6.9 mph - N/A   Clear
3:15 AM 35.6 °F 30.7 °F 35.6 °F 100% 29.92 in 10.0 mi SE 5.8 mph - N/A   Clear
3:20 AM 35.6 °F 30.7 °F 35.6 °F 100% 29.92 in 10.0 mi SE 5.8 mph - N/A   Clear
3:35 AM 35.6 °F 30.7 °F 35.6 °F 100% 29.91 in 10.0 mi SE 5.8 mph - N/A   Clear
3:40 AM 35.6 °F 29.9 °F 35.6 °F 100% 29.91 in 10.0 mi SSE 6.9 mph - N/A   Clear
3:55 AM 35.6 °F 29.9 °F 35.6 °F 100% 29.91 in 10.0 mi SSE 6.9 mph - N/A   Clear
4:15 AM 35.6 °F 29.9 °F 35.6 °F 100% 29.90 in 10.0 mi SSE 6.9 mph - N/A   Clear
4:35 AM 35.6 °F 30.7 °F 35.6 °F 100% 29.90 in 10.0 mi SSE 5.8 mph - N/A   Clear
4:40 AM 35.6 °F 29.9 °F 35.6 °F 100% 29.89 in 10.0 mi SSE 6.9 mph - N/A   Clear
4:55 AM 35.6 °F 29.2 °F 35.6 °F 100% 29.89 in 10.0 mi South 8.1 mph - N/A   Clear
5:00 AM 35.6 °F 29.2 °F 35.6 °F 100% 29.89 in 10.0 mi SSE 8.1 mph - N/A   Clear
5:15 AM 35.6 °F 29.2 °F 35.6 °F 100% 29.89 in 10.0 mi SSE 8.1 mph - N/A   Clear
5:20 AM 35.6 °F 30.7 °F 35.6 °F 100% 29.89 in 10.0 mi SSE 5.8 mph - N/A   Clear
5:35 AM 35.6 °F 30.7 °F 35.6 °F 100% 29.89 in 10.0 mi SSE 5.8 mph - N/A   Clear
5:40 AM 33.8 °F 27.7 °F 33.8 °F 100% 29.89 in 10.0 mi SSE 6.9 mph - N/A   Clear
5:55 AM 33.8 °F 27.0 °F 33.8 °F 100% 29.89 in 10.0 mi SSE 8.1 mph - N/A   Clear
6:00 AM 33.8 °F 28.6 °F 33.8 °F 100% 29.89 in 10.0 mi SSE 5.8 mph - N/A   Clear
6:15 AM 33.8 °F 27.7 °F 33.8 °F 100% 29.89 in 10.0 mi South 6.9 mph - N/A   Clear
6:35 AM 33.8 °F 28.6 °F 33.8 °F 100% 29.88 in 10.0 mi SSE 5.8 mph - N/A   Clear
6:40 AM 33.8 °F 27.7 °F 33.8 °F 100% 29.88 in 10.0 mi SSE 6.9 mph - N/A   Clear
6:55 AM 33.8 °F 28.6 °F 33.8 °F 100% 29.89 in 10.0 mi SE 5.8 mph - N/A   Clear
7:15 AM 33.8 °F 27.7 °F 33.8 °F 100% 29.88 in 10.0 mi SE 6.9 mph - N/A   Clear
7:20 AM 33.8 °F 29.6 °F 33.8 °F 100% 29.89 in 10.0 mi ESE 4.6 mph - N/A   Clear
7:35 AM 32.0 °F 27.5 °F 32.0 °F 100% 29.89 in 10.0 mi SSE 4.6 mph - N/A   Clear
7:55 AM 33.8 °F 27.7 °F 33.8 °F 100% 29.89 in 10.0 mi SSE 6.9 mph - N/A   Clear
8:00 AM 33.8 °F 27.7 °F 33.8 °F 100% 29.88 in 10.0 mi SSE 6.9 mph - N/A   Clear
8:15 AM 33.8 °F 27.0 °F 33.8 °F 100% 29.88 in 10.0 mi SSE 8.1 mph - N/A   Clear
8:35 AM 35.6 °F 28.6 °F 35.6 °F 100% 29.88 in 10.0 mi SSE 9.2 mph - N/A   Clear
8:55 AM 37.4 °F 30.3 °F 37.4 °F 100% 29.89 in 10.0 mi South 10.4 mph - N/A   Clear
9:00 AM 37.4 °F 30.3 °F 37.4 °F 100% 29.89 in 10.0 mi South 10.4 mph - N/A   Clear
9:15 AM 37.4 °F 30.3 °F 37.4 °F 100% 29.88 in 10.0 mi SSE 10.4 mph - N/A   Clear
9:20 AM 37.4 °F 30.3 °F 37.4 °F 100% 29.88 in 10.0 mi SSE 10.4 mph - N/A   Clear
9:35 AM 39.2 °F 33.0 °F 39.2 °F 100% 29.88 in 10.0 mi SSE 9.2 mph - N/A   Clear
9:55 AM 41.0 °F 34.7 °F 41.0 °F 100% 29.88 in 10.0 mi SSE 10.4 mph - N/A   Clear
10:00 AM 41.0 °F 34.7 °F 41.0 °F 100% 29.88 in 10.0 mi SSE 10.4 mph - N/A   Clear
10:15 AM 42.8 °F 36.2 °F 41.0 °F 93% 29.88 in 10.0 mi South 12.7 mph 16.1 mph N/A   Clear
10:35 AM 44.6 °F 38.8 °F 42.8 °F 93% 29.88 in 10.0 mi SSE 11.5 mph - N/A   Clear
10:55 AM 46.4 °F 41.5 °F 41.0 °F 81% 29.87 in 10.0 mi South 10.4 mph - N/A   Clear
11:15 AM 48.2 °F - 41.0 °F 76% 29.86 in 10.0 mi SSE 10.4 mph - N/A   Clear
11:20 AM 48.2 °F - 41.0 °F 76% 29.87 in 10.0 mi SE 9.2 mph - N/A   Clear
11:35 AM 48.2 °F - 41.0 °F 76% 29.86 in 10.0 mi SSE 10.4 mph - N/A   Clear
11:55 AM 50.0 °F - 41.0 °F 71% 29.86 in 10.0 mi SE 11.5 mph - N/A   Clear
12:15 PM 51.8 °F - 41.0 °F 67% 29.84 in 10.0 mi SSE 12.7 mph - N/A   Clear
12:20 PM 53.6 °F - 41.0 °F 62% 29.84 in 10.0 mi SSE 13.8 mph - N/A   Clear
12:35 PM 53.6 °F - 42.8 °F 67% 29.84 in 10.0 mi SSE 11.5 mph - N/A   Clear
12:55 PM 55.4 °F - 41.0 °F 58% 29.83 in 10.0 mi SSE 11.5 mph 16.1 mph N/A   Clear
1:00 PM 55.4 °F - 42.8 °F 63% 29.83 in 10.0 mi SSE 12.7 mph 17.3 mph N/A   Clear
1:15 PM 57.2 °F - 41.0 °F 55% 29.82 in 10.0 mi SSE 12.7 mph - N/A   Clear
1:20 PM 57.2 °F - 41.0 °F 55% 29.82 in 10.0 mi SSE 12.7 mph - N/A   Clear
1:35 PM 59.0 °F - 41.0 °F 51% 29.81 in 10.0 mi SE 12.7 mph 17.3 mph N/A   Clear
1:40 PM 59.0 °F - 42.8 °F 55% 29.81 in 10.0 mi SSE 12.7 mph - N/A   Clear
1:55 PM 59.0 °F - 41.0 °F 51% 29.80 in 10.0 mi SSE 16.1 mph 20.7 mph N/A   Clear
2:00 PM 59.0 °F - 41.0 °F 51% 29.81 in 10.0 mi South 15.0 mph 20.7 mph N/A   Clear
2:15 PM 60.8 °F - 42.8 °F 52% 29.80 in 10.0 mi SSE 15.0 mph 19.6 mph N/A   Clear
2:20 PM 60.8 °F - 41.0 °F 48% 29.80 in 10.0 mi SSE 15.0 mph 20.7 mph N/A   Clear
2:35 PM 60.8 °F - 41.0 °F 48% 29.79 in 10.0 mi SSE 17.3 mph 23.0 mph N/A   Clear
3:15 PM 60.8 °F - 41.0 °F 48% 29.77 in 10.0 mi SSE 13.8 mph 21.9 mph N/A   Clear
3:35 PM 62.6 °F - 41.0 °F 45% 29.76 in 10.0 mi SSE 13.8 mph - N/A   Clear
3:40 PM 62.6 °F - 41.0 °F 45% 29.76 in 10.0 mi SSE 15.0 mph 20.7 mph N/A   Clear
3:55 PM 62.6 °F - 41.0 °F 45% 29.76 in 10.0 mi SSE 17.3 mph 24.2 mph N/A   Clear
4:15 PM 62.6 °F - 41.0 °F 45% 29.75 in 10.0 mi SE 16.1 mph - N/A   Clear
4:35 PM 62.6 °F - 39.2 °F 42% 29.74 in 10.0 mi SSE 13.8 mph 24.2 mph N/A   Clear
4:40 PM 62.6 °F - 41.0 °F 45% 29.74 in 10.0 mi SSE 13.8 mph 24.2 mph N/A   Clear
4:55 PM 62.6 °F - 41.0 °F 45% 29.73 in 10.0 mi SE 13.8 mph - N/A   Clear
5:15 PM 62.6 °F - 41.0 °F 45% 29.73 in 10.0 mi SE 18.4 mph 21.9 mph N/A   Clear
5:35 PM 60.8 °F - 39.2 °F 45% 29.72 in 10.0 mi SE 17.3 mph 23.0 mph N/A   Clear
5:40 PM 60.8 °F - 39.2 °F 45% 29.72 in 10.0 mi SE 15.0 mph 23.0 mph N/A   Clear
5:55 PM 59.0 °F - 39.2 °F 48% 29.72 in 10.0 mi SE 16.1 mph 21.9 mph N/A   Clear
6:00 PM 59.0 °F - 39.2 °F 48% 29.72 in 10.0 mi SE 15.0 mph 21.9 mph N/A   Clear
6:15 PM 57.2 °F - 39.2 °F 51% 29.72 in 10.0 mi SE 13.8 mph 19.6 mph N/A   Clear
6:35 PM 57.2 °F - 41.0 °F 55% 29.71 in 10.0 mi SE 15.0 mph 20.7 mph N/A   Clear
6:55 PM 57.2 °F - 41.0 °F 55% 29.70 in 10.0 mi SSE 15.0 mph 21.9 mph N/A   Clear
7:00 PM 57.2 °F - 41.0 °F 55% 29.71 in 10.0 mi SSE 15.0 mph 21.9 mph N/A   Clear
7:15 PM 55.4 °F - 41.0 °F 58% 29.71 in 10.0 mi SSE 13.8 mph 18.4 mph N/A   Clear
7:35 PM 55.4 °F - 41.0 °F 58% 29.71 in 10.0 mi SSE 15.0 mph - N/A   Clear
7:40 PM 55.4 °F - 41.0 °F 58% 29.70 in 10.0 mi SSE 16.1 mph - N/A   Clear
7:55 PM 55.4 °F - 41.0 °F 58% 29.70 in 10.0 mi SSE 15.0 mph 21.9 mph N/A   Clear
8:00 PM 53.6 °F - 41.0 °F 62% 29.70 in 10.0 mi SSE 15.0 mph 21.9 mph N/A   Clear
8:15 PM 53.6 °F - 41.0 °F 62% 29.70 in 9.0 mi SSE 15.0 mph 21.9 mph N/A   Clear
8:35 PM 53.6 °F - 41.0 °F 62% 29.70 in 10.0 mi SSE 13.8 mph - N/A   Clear
8:40 PM 53.6 °F - 41.0 °F 62% 29.70 in 10.0 mi SSE 15.0 mph - N/A   Clear
8:55 PM 53.6 °F - 41.0 °F 62% 29.70 in 10.0 mi SSE 15.0 mph 20.7 mph N/A   Clear
9:00 PM 53.6 °F - 41.0 °F 62% 29.69 in 10.0 mi SSE 15.0 mph 20.7 mph N/A   Clear
9:15 PM 53.6 °F - 41.0 °F 62% 29.69 in 10.0 mi SSE 15.0 mph - N/A   Clear
9:55 PM 51.8 °F - 42.8 °F 71% 29.69 in 10.0 mi SSE 13.8 mph 19.6 mph N/A   Clear
10:00 PM 50.0 °F - 42.8 °F 76% 29.69 in 10.0 mi SSE 13.8 mph 19.6 mph N/A   Clear
10:15 PM 50.0 °F - 42.8 °F 76% 29.69 in 10.0 mi SSE 15.0 mph - N/A   Clear
10:20 PM 50.0 °F - 42.8 °F 76% 29.69 in 10.0 mi SSE 13.8 mph - N/A   Clear
10:35 PM 50.0 °F - 42.8 °F 76% 29.69 in 10.0 mi SSE 15.0 mph - N/A   Clear
10:40 PM 50.0 °F - 42.8 °F 76% 29.69 in 10.0 mi SSE 16.1 mph - N/A   Clear
10:55 PM 50.0 °F - 44.6 °F 82% 29.68 in 10.0 mi SSE 15.0 mph - N/A   Clear
11:15 PM 50.0 °F - 44.6 °F 82% 29.67 in 10.0 mi SSE 16.1 mph 23.0 mph N/A   Clear
11:35 PM 50.0 °F - 44.6 °F 82% 29.67 in 10.0 mi SSE 17.3 mph 20.7 mph N/A   Clear
11:55 PM 51.8 °F - 44.6 °F 76% 29.66 in 10.0 mi SSE 16.1 mph 24.2 mph N/A   Clear